Rbgn^[z[y[W
メイン
   新天体発見情報
     Comet P/2014 A3 = 2023 X6 (PANSTARRS)
投稿するにはまず登録を

フラット表示 前のトピック | 次のトピック
投稿者 スレッド
佐藤裕久
投稿日時: 2024-2-15 17:24
モデレータ
登録日: 2005-6-12
居住地: 日本
投稿: 2661
オンライン
Comet P/2014 A3 = 2023 X6 (PANSTARRS)

2023年12月9日、2024年1月7日と1月20日UT、HaleakalaにあるPan-STARRS1の1.8-m Ritchey-Chretien
反射望遠鏡で得た画像からP/2014 A3 (CBET 3782参照)を検出した。
NK 2902 (= ICQ's 2023 CometHandbook)の中野主一氏の予報に対し、Delta(T)は、-0.02 day
であった。
MPC 92981のG. V. Williamsの予報に対する修正値は、Delta(T) = -0.09 dayであった。
彗星年表2021の佐藤裕久の参考軌道に対する修正値は、Delta(T) = -0.10 dayであった。

検出位置は次のとおり、

     2023 UT             R.A. (2000) Decl.       Mag.
     Dec.  9.52995    8 54 00.75   + 1 08 34.4   21.5
           9.54708    8 54 00.66   + 1 08 29.8   21.4
           9.56264    8 54 00.56   + 1 08 25.6   21.3

     2024 UT             R.A. (2000) Decl.       Mag.
     Jan.  7.52833    8 44 42.64   - 0 12 45.3   21.0
           7.53972    8 44 42.25   - 0 12 46.4   21.0
           7.55111    8 44 41.88   - 0 12 46.7   21.0
          20.44847    8 37 07.26   - 0 13 12.6   21.1
          20.46387    8 37 06.66   - 0 13 11.8   21.1
          20.47627    8 37 06.19   - 0 13 11.1   20.9
          20.48869    8 37 05.70   - 0 13 10.6   21.0

MPCの連結軌道要素、位置推算表は次のとおり、

Orbital elements:
    P/2014 A3 (PANSTARRS)                                                       
Epoch 2023 Sept. 13.0 TT = JDT 2460200.5                                        
T 2023 Apr. 22.63319 TT                                 Rudenko                 
q   3.4721727            (2000.0)            P               Q                  
n   0.09967599     Peri.  214.20207     +0.11368703     -0.97677926             
a   4.6069023      Node   229.97764     +0.95631484     +0.15713604             
e   0.2463108      Incl.   13.71756     +0.26932727     -0.14563838             
P   9.89                                                                        
From 66 observations 2014 Jan. 9-2024 Jan. 20, mean residual 0".4.              
                                                                                
Ephemeris:
Date    TT    R. A. (2000) Decl.     Delta      r    Elong.  Phase   m1
2024 01 01    08 47 55.2 -00 03 42   2.8316  3.6544   141.7     9.6  19.9
...
2024 01 16    08 39 52.2 -00 15 38   2.7594  3.6751   155.1     6.5  19.9
...
2024 01 24    08 34 52.3 -00 09 22   2.7456  3.6865   160.1     5.2  19.9
...
2024 01 30    08 31 02.5 +00 00 38   2.7473  3.6952   161.7     4.8  19.9
2024 01 31    08 30 24.4 +00 02 42   2.7486  3.6967   161.7     4.8  19.9
2024 02 01    08 29 46.4 +00 04 54   2.7501  3.6982   161.6     4.8  19.9
...
2024 02 07    08 26 04.2 +00 20 13   2.7657  3.7071   159.9     5.3  19.9
...
2024 02 15    08 21 32.4 +00 45 38   2.8023  3.7191   154.7     6.5  19.9
...
2024 03 01    08 15 07.6 +01 42 46   2.9164  3.7424   141.4     9.5  20.1

(MPEC 2024-B170、CBET 5342、oaa-comet 6242)

フラット表示 前のトピック | 次のトピック

題名 投稿者 日時
 » Comet P/2014 A3 = 2023 X6 (PANSTARRS) 佐藤裕久 2024-2-15 17:24

投稿するにはまず登録を
 
© 1999 Tsutomu Seki.